Location: Regensburg
(48.4565°N, 10.3217°E)
Time: 17:17:38
(UTC+01:00)

OTV 5 (USA 277) - Visible Passes

Search period start: 24 February 2018 00:00
Search period end: 06 March 2018 00:00
Orbit: 404 x 417 km, 43.0° (Epoch: 07 September)

Date Brightness Start Highest point End Pass type
(mag) Time Alt. Az. Time Alt. Az. Time Alt. Az.
24 Feb ? 05:03:42 16° SSE 05:03:48 16° SSE 05:05:54 10° ESE visible
25 Feb ? 05:47:48 17° SW 05:49:36 27° S 05:52:28 10° ESE visible
26 Feb ? 04:59:06 23° SSE 04:59:06 23° SSE 05:01:23 10° ESE visible
27 Feb ? 05:43:07 21° SW 05:44:33 31° S 05:47:31 10° ESE visible
28 Feb ? 04:54:23 26° SSE 04:54:23 26° SSE 04:56:32 10° ESE visible
28 Feb ? 06:27:39 10° WSW 06:30:27 26° SSW 06:33:16 10° SE visible
01 Mar ? 05:38:23 23° SW 05:39:31 29° S 05:42:25 10° SE visible
02 Mar ? 04:49:40 24° SE 04:49:40 24° SE 04:51:31 10° ESE visible
02 Mar ? 06:23:01 10° WSW 06:25:20 18° SSW 06:27:40 10° SSE visible
03 Mar ? 05:33:44 20° SW 05:34:26 22° SSW 05:37:03 10° SE visible
04 Mar ? 04:45:06 18° SSE 04:45:06 18° SSE 04:46:18 10° SE visible
04 Mar ? 06:19:24 10° SW 06:20:07 11° SSW 06:20:50 10° SSW visible
05 Mar ? 05:29:19 14° SSW 05:29:19 14° SSW 05:31:05 10° S visible
